TimePDT,TemperatureF,Dew PointF,Humidity,Sea Level PressureIn,VisibilityMPH,Wind Direction,Wind SpeedMPH,Gust SpeedMPH,PrecipitationIn,Events,Conditions,WindDirDegrees,DateUTC
12:53 AM,52.0,46.9,83,30.16,10.0,South,8.1,-,N/A,,Clear,170,2014-04-06 07:53:00
1:53 AM,51.1,46.9,86,30.15,10.0,South,9.2,-,N/A,,Clear,170,2014-04-06 08:53:00
2:53 AM,50.0,46.9,89,30.15,10.0,South,4.6,-,N/A,,Clear,170,2014-04-06 09:53:00
3:53 AM,48.9,46.0,90,30.15,10.0,SSE,3.5,-,N/A,,Clear,150,2014-04-06 10:53:00
4:53 AM,48.9,46.0,90,30.16,10.0,South,4.6,-,N/A,,Clear,180,2014-04-06 11:53:00
6:53 AM,46.9,45.0,93,30.17,10.0,South,4.6,-,N/A,,Clear,170,2014-04-06 13:53:00
7:53 AM,50.0,46.9,89,30.19,10.0,South,5.8,-,N/A,,Clear,190,2014-04-06 14:53:00
8:53 AM,55.0,48.0,77,30.20,10.0,SSE,4.6,-,N/A,,Clear,160,2014-04-06 15:53:00
9:53 AM,60.1,48.9,67,30.20,10.0,Calm,Calm,-,N/A,,Clear,0,2014-04-06 16:53:00
10:53 AM,64.0,50.0,60,30.19,10.0,Calm,Calm,-,N/A,,Clear,0,2014-04-06 17:53:00
11:53 AM,69.1,50.0,51,30.18,10.0,North,4.6,-,N/A,,Clear,350,2014-04-06 18:53:00
12:53 PM,71.1,46.9,42,30.16,10.0,WNW,4.6,-,N/A,,Clear,300,2014-04-06 19:53:00
1:53 PM,73.9,48.9,41,30.14,10.0,Variable,4.6,-,N/A,,Clear,0,2014-04-06 20:53:00
2:53 PM,77.0,46.9,34,30.12,10.0,Variable,3.5,-,N/A,,Clear,0,2014-04-06 21:53:00
3:53 PM,78.1,48.9,36,30.09,10.0,NW,8.1,-,N/A,,Clear,310,2014-04-06 22:53:00
4:53 PM,78.1,48.9,36,30.07,10.0,NW,4.6,-,N/A,,Clear,310,2014-04-06 23:53:00
5:53 PM,77.0,50.0,39,30.06,10.0,WNW,5.8,-,N/A,,Clear,300,2014-04-07 00:53:00
6:53 PM,73.9,52.0,46,30.05,10.0,West,9.2,-,N/A,,Clear,280,2014-04-07 01:53:00
7:53 PM,70.0,50.0,49,30.06,10.0,NNW,3.5,-,N/A,,Clear,340,2014-04-07 02:53:00
8:53 PM,66.9,50.0,54,30.07,10.0,West,3.5,-,N/A,,Clear,270,2014-04-07 03:53:00
9:53 PM,63.0,51.1,65,30.09,10.0,Calm,Calm,-,N/A,,Clear,0,2014-04-07 04:53:00
10:53 PM,61.0,52.0,72,30.09,10.0,SSE,4.6,-,N/A,,Clear,160,2014-04-07 05:53:00
11:53 PM,59.0,51.1,75,30.08,10.0,Calm,Calm,-,N/A,,Clear,0,2014-04-07 06:53:00